星链-36638(STARLINK-36638)

导读

STARLINK-36638是美国太空探索技术公司SpaceX星链星座项目中的卫星,于2026年1月29日由美国发射升空。星链项目旨在构建全球卫星互联网,该卫星入轨后将和其他星链卫星协同,为全球偏远地区、海洋空域等提供低延迟、高速率的宽带互联网接入服务。

Basic Information
目录编号:
67594
目录名称:
STARLINK-36638
国际标识:
2026-018F
轨道中心:
EARTH
卫星名称:
星链-36638
卫星全名:
星链-36638(STARLINK-36638)
卫星状态:
在轨 (已飞行135 天)
发射日期:
2026-01-29 UTC
国别 :
美国 (US)
星等 :
--
Orbit Information
数据来源 国际轨道数据 AOE轨道数据
星历时间 2026-06-12T11:02:26+0800
1天前
查看轨道信息
2026-06-10T06:00:00+0800
3天前
查看轨道信息
半长轴 6843.668km 6843.708km
偏心率 0.0000345 0.0000941
轨道倾角 97.285° 97.292°
近地点辐角 104.531° 91.638°
升交点赤经 227.948° 225.778°
平近点角 255.598° 316.261°
近地点 465.294km 464.927km
远地点 465.768km 466.215km
周期 93.906分钟 93.907分钟
每日圈数 15.334492 15.334358
Detailed Information
固有亮度:
5
最大亮度:
2.5
卫星平台:
Starlink V1.0
覆盖范围:
全球
运营商:
太空探索技术公司
运营商所在国:
美国
制造商(研发单位):
太空探索技术公司
制造商所在国:
美国
使用方式:
暂无
Satellite Introduction
Starlink 计划是 SpaceX 推出的全球卫星互联网项目,通过发射低轨道卫星,为全球尤其是偏远地区提供高速、低延迟的互联网服务。自 2019 年起,Starlink 已部署数千颗卫星,旨在缩小全球数字鸿沟,推动互联网普及。该项目还为军事、航空等行业提供通信支持,带来广泛经济效益。
2D Orbit Map
3D Orbit Map
Orbit Altitude Analysis Chart
Orbit Inclination Analysis Chart
Orbit Comprehensive Analysis Chart
View Comprehensive Chart